SV1BYK-4 Weather Reports


Display with metric or nautical units.
time (UTC)temp
F
wind
direction
speed
MPH
gust
MPH
rain 1hr
in
rain 24hr
in
rain mn
in
humidity
%
barometer
mb
20260502164236 57 346 2.0 13.0 0.00 0.00 0.00 38 1017.3
20260502163337 57 322 2.0 13.0 0.00 0.00 0.00 38 1017.2
20260502162436 56 339 2.0 13.0 0.00 0.00 0.00 40 1017.2
20260502161536 56 337 2.0 14.0 0.00 0.00 0.00 39 1017.3
20260502160636 59 306 2.0 15.0 0.00 0.00 0.00 36 1017.4
20260502152137 56 333 11.0 23.0 0.00 0.00 0.00 39 1017.5
20260502151236 57 332 3.0 18.0 0.00 0.00 0.00 38 1017.6
20260502150337 59 298 3.0 17.0 0.00 0.00 0.00 36 1017.7
20260502130637 57 290 2.0 25.0 0.00 0.00 0.00 38 1017.8
20260502123036 58 277 2.0 13.0 0.00 0.00 0.00 40 1017.8
20260502122137 58 242 4.0 11.0 0.00 0.00 0.00 40 1017.7
20260502121237 59 252 4.0 14.0 0.00 0.00 0.00 38 1017.5
20260502120336 59 278 4.0 14.0 0.00 0.00 0.00 39 1017.7
20260502115437 61 270 3.0 7.0 0.00 0.00 0.00 36 1017.8
20260502114536 59 260 4.0 14.0 0.00 0.00 0.00 42 1017.7
20260502113636 59 272 3.0 11.0 0.00 0.00 0.00 42 1017.7
20260502112736 59 294 2.0 13.0 0.00 0.00 0.00 43 1017.8
20260502110936 60 260 3.0 9.0 0.00 0.00 0.00 44 1017.8
20260502110037 60 230 3.0 8.0 0.00 0.00 0.00 45 1017.8
20260502105136 58 240 4.0 11.0 0.00 0.00 0.00 47 1018.0
20260502104237 58 245 4.0 11.0 0.00 0.00 0.00 47 1017.9
20260502103336 60 239 3.0 9.0 0.00 0.00 0.00 44 1017.9
20260502102436 59 265 3.0 15.0 0.00 0.00 0.00 45 1018.0
20260502101537 59 262 3.0 15.0 0.00 0.00 0.00 48 1018.1
20260502100636 59 207 2.0 9.0 0.00 0.00 0.00 50 1018.2
20260502091237 57 233 4.0 11.0 0.00 0.00 0.00 50 1018.0
20260502090336 59 262 3.0 14.0 0.00 0.00 0.00 48 1017.9
20260502071536 56 270 3.0 20.0 0.00 0.00 0.00 51 1017.7
20260502070636 57 211 5.0 20.0 0.00 0.00 0.00 49 1017.3
20260502065736 57 251 3.0 11.0 0.00 0.00 0.00 49 1017.5
20260502063936 56 233 3.0 11.0 0.00 0.00 0.00 50 1017.1
20260502063036 56 257 4.0 11.0 0.00 0.00 0.00 52 1017.0
20260502062136 55 246 4.0 9.0 0.00 0.00 0.00 53 1016.7
20260502061236 55 232 4.0 11.0 0.00 0.00 0.00 54 1016.9
20260502060336 56 249 3.0 9.0 0.00 0.00 0.00 53 1016.8
20260502053636 53 228 3.0 8.0 0.00 0.00 0.00 59 1016.9
20260502052736 53 205 4.0 8.0 0.00 0.00 0.00 59 1016.9
20260502050936 53 227 2.0 9.0 0.00 0.00 0.00 61 1016.9
20260502050036 53 240 3.0 11.0 0.00 0.00 0.00 61 1017.1
20260502045136 53 233 4.0 8.0 0.00 0.00 0.00 63 1016.9
20260502044236 53 240 2.0 8.0 0.00 0.00 0.00 63 1016.9
20260502043336 53 233 3.0 8.0 0.00 0.00 0.00 64 1016.8
20260502042436 52 238 4.0 7.0 0.00 0.00 0.00 65 1016.7
20260502041536 52 235 3.0 7.0 0.00 0.00 0.00 67 1016.7
20260502040636 52 223 3.0 6.0 0.00 0.00 0.00 68 1016.8
20260502034836 52 229 2.0 8.0 0.00 0.00 0.00 69 1016.9
20260502033036 52 230 2.0 7.0 0.00 0.00 0.00 72 1016.7
20260502032136 52 216 3.0 8.0 0.00 0.00 0.00 71 1016.5
20260502030336 53 242 2.0 7.0 0.00 0.00 0.00 66 1016.3
20260502025436 53 224 2.0 4.0 0.00 0.00 0.00 66 1016.3
20260502022736 53 234 2.0 6.0 0.00 0.00 0.00 65 1016.4
20260502021836 53 242 2.0 4.0 0.00 0.00 0.00 65 1016.4
20260502020936 53 254 3.0 13.0 0.00 0.00 0.00 65 1016.4
20260502020036 53 230 2.0 7.0 0.00 0.00 0.00 65 1016.5
20260502014236 53 219 2.0 6.0 0.00 0.00 0.00 66 1016.4
20260502013336 53 241 2.0 6.0 0.00 0.00 0.00 66 1016.5
20260502011536 53 195 2.0 4.0 0.00 0.00 0.00 66 1016.3
20260502010636 53 239 2.0 4.0 0.00 0.00 0.00 66 1016.4
20260502005736 53 212 2.0 6.0 0.00 0.00 0.00 65 1016.3
20260502004836 53 239 2.0 8.0 0.00 0.00 0.00 64 1016.3
20260502002136 53 233 2.0 6.0 0.00 0.00 0.00 65 1016.5
20260502001236 53 244 3.0 13.0 0.00 0.01 0.00 65 1016.4
20260502000336 54 232 3.0 9.0 0.00 0.01 0.00 63 1016.5
20260501233636 53 204 2.0 11.0 0.00 0.01 0.00 65 1016.6
20260501232736 54 205 2.0 8.0 0.00 0.01 0.00 66 1016.8
20260501231836 53 216 2.0 8.0 0.00 0.01 0.00 66 1016.8
20260501230936 53 280 2.0 8.0 0.00 0.01 0.00 67 1016.8
20260501230036 53 246 2.0 7.0 0.00 0.01 0.00 66 1016.8
20260501225136 53 210 2.0 6.0 0.00 0.01 0.00 66 1016.9
20260501224236 53 219 2.0 7.0 0.00 0.01 0.00 66 1017.1
20260501223336 54 248 2.0 9.0 0.00 0.01 0.00 66 1017.1
20260501222436 54 232 1.0 4.0 0.00 0.01 0.00 67 1017.2
20260501221536 54 199 1.0 6.0 0.00 0.01 0.00 67 1017.3
20260501214836 54 242 2.0 7.0 0.00 0.01 0.00 66 1017.4
20260501213936 54 266 2.0 11.0 0.00 0.01 0.00 66 1017.3
20260501213036 54 204 1.0 6.0 0.00 0.01 0.00 66 1017.3
20260501212136 54 243 3.0 8.0 0.00 0.01 0.00 65 1017.4
20260501211236 54 277 2.0 7.0 0.00 0.01 0.00 65 1017.4
20260501210336 54 276 2.0 6.0 0.00 0.01 0.00 64 1017.4
20260501203636 54 254 2.0 7.0 0.00 0.01 0.01 66 1017.4
20260501202736 54 244 2.0 7.0 0.00 0.01 0.01 66 1017.2
20260501201836 54 235 4.0 8.0 0.00 0.01 0.01 66 1017.0
20260501200936 54 242 3.0 6.0 0.00 0.01 0.01 66 1016.9
20260501200036 54 226 3.0 7.0 0.00 0.01 0.01 66 1016.9
20260501195136 54 221 2.0 8.0 0.00 0.01 0.01 66 1016.8
20260501194236 54 254 2.0 7.0 0.00 0.01 0.01 67 1016.9
20260501193336 54 282 2.0 6.0 0.00 0.01 0.01 67 1017.0
20260501192436 55 331 2.0 9.0 0.00 0.01 0.01 66 1016.9
20260501191536 55 255 2.0 6.0 0.00 0.01 0.01 66 1016.9
20260501190636 55 217 2.0 7.0 0.00 0.01 0.01 66 1016.7
20260501184836 55 244 2.0 4.0 0.00 0.01 0.01 66 1016.6
20260501183936 55 235 2.0 8.0 0.00 0.01 0.01 66 1016.7
20260501183036 55 242 2.0 8.0 0.00 0.01 0.01 66 1016.7
20260501182136 54 243 4.0 8.0 0.00 0.01 0.01 66 1016.5
20260501181236 54 234 2.0 7.0 0.00 0.01 0.01 67 1016.5
20260501180336 54 222 3.0 6.0 0.00 0.01 0.01 68 1016.3
20260501175436 54 215 2.0 6.0 0.00 0.01 0.01 68 1016.3
20260501174536 54 233 2.0 9.0 0.00 0.01 0.01 67 1016.2
20260501173636 55 239 4.0 9.0 0.00 0.01 0.01 66 1016.1
20260501172736 55 246 2.0 7.0 0.00 0.01 0.01 65 1016.2
20260501171836 55 179 3.0 9.0 0.00 0.01 0.01 65 1016.1